STARLINK-11469 [DTC] (62227 NORAD) Tracking and Keplerian Element Data

This shows tracking and keplerian element data for the satellite.

Feedback or suggestion? Click here.




ElementValue
Catalog62227
NameSTARLINK-11469 [DTC]
Epoch Orbit1075
Epoch Day35.06573469
Epoch Year2025
RAAN266.3005
Inclination53.1562
Eccentricity0.0001603
Argument of Perigee99.4229
Mean Anonmoly260.697
Mean Motion15.69694869
Decay Rate8.48E-06
L11 62227U 24231K 25035.06573469 .00000848 00000+0 11867-4 0 9992
L22 62227 53.1562 266.3005 0001603 99.4229 260.6970 15.69694869 10756



Live tracking and technical data element details for STARLINK-11469 [DTC] (NORAD 62227). STARLINK-11469 [DTC] can be tracked NOW for your location showing map with azimuth and elevation plus other details from your city location.







IsCatalogInMostPopularTable: catalog: 62227, numindb: 13
Update: records affected: 1



GetName: 62227 STARLINK-11469 [DTC]

Hit Count: updated at: Mon, 19 May 2025 03:06:43 GMT